Year,Month,Day,Hour,Minute,Value (Times are PST for temperature in C)
2010,02,15,00,00,3.00
2010,02,15,00,01,3.00
2010,02,15,00,02,3.10
2010,02,15,00,03,3.10
2010,02,15,00,04,3.10
2010,02,15,00,05,3.10
2010,02,15,00,06,3.10
2010,02,15,00,07,3.10
2010,02,15,00,08,3.00
2010,02,15,00,09,3.00
2010,02,15,00,10,3.00
2010,02,15,00,11,3.00
2010,02,15,00,12,2.90
2010,02,15,00,13,2.90
2010,02,15,00,14,2.90
2010,02,15,00,15,2.80
2010,02,15,00,16,2.80
2010,02,15,00,17,2.80
2010,02,15,00,18,2.80
2010,02,15,00,19,2.80
2010,02,15,00,20,2.70
2010,02,15,00,21,2.70
2010,02,15,00,22,2.70
2010,02,15,00,23,2.70
2010,02,15,00,24,2.70
2010,02,15,00,25,2.70
2010,02,15,00,26,2.70
2010,02,15,00,27,2.70
2010,02,15,00,28,2.70
2010,02,15,00,29,2.70
2010,02,15,00,30,2.70
2010,02,15,00,31,2.70
2010,02,15,00,32,2.70
2010,02,15,00,33,2.80
2010,02,15,00,34,2.80
2010,02,15,00,35,2.80
2010,02,15,00,36,2.80
2010,02,15,00,37,2.90
2010,02,15,00,38,2.90
2010,02,15,00,39,2.80
2010,02,15,00,40,2.80
2010,02,15,00,41,2.80
2010,02,15,00,42,2.70
2010,02,15,00,43,2.70
2010,02,15,00,44,2.70
2010,02,15,00,45,2.70
2010,02,15,00,46,2.60
2010,02,15,00,47,2.60
2010,02,15,00,48,2.60
2010,02,15,00,49,2.50
2010,02,15,00,50,2.50
2010,02,15,00,51,2.40
2010,02,15,00,52,2.40
2010,02,15,00,53,2.30
2010,02,15,00,54,2.30
2010,02,15,00,55,2.30
2010,02,15,00,56,2.20
2010,02,15,00,57,2.20
2010,02,15,00,58,2.20
2010,02,15,00,59,2.10
2010,02,15,01,00,2.10
2010,02,15,01,01,2.10
2010,02,15,01,02,2.10
2010,02,15,01,03,2.10
2010,02,15,01,04,2.10
2010,02,15,01,05,2.10
2010,02,15,01,06,2.10
2010,02,15,01,07,2.20
2010,02,15,01,08,2.20
2010,02,15,01,09,2.20
2010,02,15,01,10,2.20
2010,02,15,01,11,2.20
2010,02,15,01,12,2.20
2010,02,15,01,13,2.20
2010,02,15,01,14,2.20
2010,02,15,01,15,2.20
2010,02,15,01,16,2.20
2010,02,15,01,17,2.20
2010,02,15,01,18,2.20
2010,02,15,01,19,2.20
2010,02,15,01,20,2.20
2010,02,15,01,21,2.20
2010,02,15,01,22,2.20
2010,02,15,01,23,2.30
2010,02,15,01,24,2.30
2010,02,15,01,25,2.30
2010,02,15,01,26,2.30
2010,02,15,01,27,2.40
2010,02,15,01,28,2.40
2010,02,15,01,29,2.40
2010,02,15,01,30,2.40
2010,02,15,01,31,2.40
2010,02,15,01,32,2.40
2010,02,15,01,33,2.40
2010,02,15,01,34,2.40
2010,02,15,01,35,2.40
2010,02,15,01,36,2.30
2010,02,15,01,37,2.40
2010,02,15,01,38,2.40
2010,02,15,01,39,2.40
2010,02,15,01,40,2.50
2010,02,15,01,41,2.60
2010,02,15,01,42,2.70
2010,02,15,01,43,2.80
2010,02,15,01,44,2.90
2010,02,15,01,45,3.00
2010,02,15,01,46,3.10
2010,02,15,01,47,3.10
2010,02,15,01,48,3.10
2010,02,15,01,49,3.20
2010,02,15,01,50,3.30
2010,02,15,01,51,3.40
2010,02,15,01,52,3.50
2010,02,15,01,53,3.40
2010,02,15,01,54,3.30
2010,02,15,01,55,3.10
2010,02,15,01,56,2.90
2010,02,15,01,57,2.70
2010,02,15,01,58,2.50
2010,02,15,01,59,2.40
2010,02,15,02,00,2.40
2010,02,15,02,01,2.30
2010,02,15,02,02,2.30
2010,02,15,02,03,2.30
2010,02,15,02,04,2.30
2010,02,15,02,05,2.30
2010,02,15,02,06,2.30
2010,02,15,02,07,2.30
2010,02,15,02,08,2.30
2010,02,15,02,09,2.30
2010,02,15,02,10,2.30
2010,02,15,02,11,2.30
2010,02,15,02,12,2.30
2010,02,15,02,13,2.30
2010,02,15,02,14,2.40
2010,02,15,02,15,2.40
2010,02,15,02,16,2.40
2010,02,15,02,17,2.50
2010,02,15,02,18,2.60
2010,02,15,02,19,2.60
2010,02,15,02,20,2.70
2010,02,15,02,21,2.80
2010,02,15,02,22,2.80
2010,02,15,02,23,2.90
2010,02,15,02,24,3.00
2010,02,15,02,25,3.10
2010,02,15,02,26,3.20
2010,02,15,02,27,3.30
2010,02,15,02,28,3.40
2010,02,15,02,29,3.60
2010,02,15,02,30,3.70
2010,02,15,02,31,3.70
2010,02,15,02,32,3.80
2010,02,15,02,33,3.80
2010,02,15,02,34,3.80
2010,02,15,02,35,3.90
2010,02,15,02,36,3.90
2010,02,15,02,37,3.90
2010,02,15,02,38,3.90
2010,02,15,02,39,3.90
2010,02,15,02,40,3.90
2010,02,15,02,41,3.90
2010,02,15,02,42,4.00
2010,02,15,02,43,4.00
2010,02,15,02,44,4.10
2010,02,15,02,45,4.10
2010,02,15,02,46,4.20
2010,02,15,02,47,4.20
2010,02,15,02,48,4.30
2010,02,15,02,49,4.40
2010,02,15,02,50,4.50
2010,02,15,02,51,4.60
2010,02,15,02,52,4.70
2010,02,15,02,53,4.70
2010,02,15,02,54,4.80
2010,02,15,02,55,4.80
2010,02,15,02,56,4.80
2010,02,15,02,57,4.80
2010,02,15,02,58,4.80
2010,02,15,02,59,4.80
2010,02,15,03,00,4.80
2010,02,15,03,01,4.80
2010,02,15,03,02,4.80
2010,02,15,03,03,4.90
2010,02,15,03,04,4.80
2010,02,15,03,05,4.80
2010,02,15,03,06,4.80
2010,02,15,03,07,4.90
2010,02,15,03,08,4.90
2010,02,15,03,09,5.00
2010,02,15,03,10,5.00
2010,02,15,03,11,5.10
2010,02,15,03,12,5.10
2010,02,15,03,13,5.20
2010,02,15,03,14,5.20
2010,02,15,03,15,5.30
2010,02,15,03,16,5.30
2010,02,15,03,17,5.30
2010,02,15,03,18,5.30
2010,02,15,03,19,5.40
2010,02,15,03,20,5.30
2010,02,15,03,21,5.40
2010,02,15,03,22,5.40
2010,02,15,03,23,5.40
2010,02,15,03,24,5.40
2010,02,15,03,25,5.40
2010,02,15,03,26,5.40
2010,02,15,03,27,5.40
2010,02,15,03,28,5.40
2010,02,15,03,29,5.40
2010,02,15,03,30,5.40
2010,02,15,03,31,5.40
2010,02,15,03,32,5.40
2010,02,15,03,33,5.50
2010,02,15,03,34,5.50
2010,02,15,03,35,5.50
2010,02,15,03,36,5.50
2010,02,15,03,37,5.60
2010,02,15,03,38,5.60
2010,02,15,03,39,5.60
2010,02,15,03,40,5.60
2010,02,15,03,41,5.60
2010,02,15,03,42,5.60
2010,02,15,03,43,5.60
2010,02,15,03,44,5.70
2010,02,15,03,45,5.70
2010,02,15,03,46,5.70
2010,02,15,03,47,5.70
2010,02,15,03,48,5.70
2010,02,15,03,49,5.70
2010,02,15,03,50,5.70
2010,02,15,03,51,5.70
2010,02,15,03,52,5.70
2010,02,15,03,53,5.80
2010,02,15,03,54,5.80
2010,02,15,03,55,5.80
2010,02,15,03,56,5.80
2010,02,15,03,57,5.80
2010,02,15,03,58,5.80
2010,02,15,03,59,5.80
2010,02,15,04,00,5.80
2010,02,15,04,01,5.80
2010,02,15,04,02,5.80
2010,02,15,04,03,5.80
2010,02,15,04,04,5.80
2010,02,15,04,05,5.90
2010,02,15,04,06,5.90
2010,02,15,04,07,5.90
2010,02,15,04,08,5.90
2010,02,15,04,09,5.90
2010,02,15,04,10,5.90
2010,02,15,04,11,5.90
2010,02,15,04,12,5.90
2010,02,15,04,13,5.90
2010,02,15,04,14,5.90
2010,02,15,04,15,5.90
2010,02,15,04,16,5.90
2010,02,15,04,17,5.90
2010,02,15,04,18,5.90
2010,02,15,04,19,5.90
2010,02,15,04,20,5.90
2010,02,15,04,21,5.90
2010,02,15,04,22,5.80
2010,02,15,04,23,5.80
2010,02,15,04,24,5.80
2010,02,15,04,25,5.80
2010,02,15,04,26,5.80
2010,02,15,04,27,5.80
2010,02,15,04,28,5.80
2010,02,15,04,29,5.80
2010,02,15,04,30,5.80
2010,02,15,04,31,5.80
2010,02,15,04,32,5.80
2010,02,15,04,33,5.80
2010,02,15,04,34,5.80
2010,02,15,04,35,5.80
2010,02,15,04,36,5.80
2010,02,15,04,37,5.80
2010,02,15,04,38,5.80
2010,02,15,04,39,5.80
2010,02,15,04,40,5.80
2010,02,15,04,41,5.80
2010,02,15,04,42,5.90
2010,02,15,04,43,5.90
2010,02,15,04,44,5.90
2010,02,15,04,45,5.90
2010,02,15,04,46,6.00
2010,02,15,04,47,6.00
2010,02,15,04,48,6.00
2010,02,15,04,49,6.10
2010,02,15,04,50,6.00
2010,02,15,04,51,6.00
2010,02,15,04,52,6.00
2010,02,15,04,53,6.00
2010,02,15,04,54,6.00
2010,02,15,04,55,6.00
2010,02,15,04,56,6.00
2010,02,15,04,57,6.00
2010,02,15,04,58,6.00
2010,02,15,04,59,6.00
2010,02,15,05,00,6.00
2010,02,15,05,01,6.00
2010,02,15,05,02,6.00
2010,02,15,05,03,6.00
2010,02,15,05,04,6.00
2010,02,15,05,05,6.00
2010,02,15,05,06,6.00
2010,02,15,05,07,6.00
2010,02,15,05,08,6.00
2010,02,15,05,09,5.90
2010,02,15,05,10,5.90
2010,02,15,05,11,5.90
2010,02,15,05,12,6.00
2010,02,15,05,13,6.00
2010,02,15,05,14,6.00
2010,02,15,05,15,6.00
2010,02,15,05,16,6.00
2010,02,15,05,17,6.00
2010,02,15,05,18,6.00
2010,02,15,05,19,6.00
2010,02,15,05,20,6.00
2010,02,15,05,21,6.00
2010,02,15,05,22,6.00
2010,02,15,05,23,6.00
2010,02,15,05,24,6.00
2010,02,15,05,25,6.00
2010,02,15,05,26,6.10
2010,02,15,05,27,6.10
2010,02,15,05,28,6.10
2010,02,15,05,29,6.10
2010,02,15,05,30,6.10
2010,02,15,05,31,6.10
2010,02,15,05,32,6.10
2010,02,15,05,33,6.10
2010,02,15,05,34,6.10
2010,02,15,05,35,6.10
2010,02,15,05,36,6.10
2010,02,15,05,37,6.10
2010,02,15,05,38,6.10
2010,02,15,05,39,6.10
2010,02,15,05,40,6.10
2010,02,15,05,41,6.10
2010,02,15,05,42,6.10
2010,02,15,05,43,6.00
2010,02,15,05,44,6.00
2010,02,15,05,45,5.90
2010,02,15,05,46,5.90
2010,02,15,05,47,5.90
2010,02,15,05,48,5.90
2010,02,15,05,49,5.90
2010,02,15,05,50,5.80
2010,02,15,05,51,5.80
2010,02,15,05,52,5.80
2010,02,15,05,53,5.90
2010,02,15,05,54,5.90
2010,02,15,05,55,5.90
2010,02,15,05,56,5.90
2010,02,15,05,57,5.90
2010,02,15,05,58,5.90
2010,02,15,05,59,5.90
2010,02,15,06,00,5.90
2010,02,15,06,01,5.90
2010,02,15,06,02,5.90
2010,02,15,06,03,5.90
2010,02,15,06,04,5.90
2010,02,15,06,05,5.90
2010,02,15,06,06,5.90
2010,02,15,06,07,5.90
2010,02,15,06,08,5.90
2010,02,15,06,09,5.90
2010,02,15,06,10,5.90
2010,02,15,06,11,5.90
2010,02,15,06,12,5.90
2010,02,15,06,13,5.90
2010,02,15,06,14,5.90
2010,02,15,06,15,5.90
2010,02,15,06,16,5.90
2010,02,15,06,17,5.90
2010,02,15,06,18,5.90
2010,02,15,06,19,5.90
2010,02,15,06,20,5.90
2010,02,15,06,21,5.90
2010,02,15,06,22,5.90
2010,02,15,06,23,6.00
2010,02,15,06,24,6.00
2010,02,15,06,25,6.00
2010,02,15,06,26,6.10
2010,02,15,06,27,6.10
2010,02,15,06,28,6.10
2010,02,15,06,29,6.10
2010,02,15,06,30,6.10
2010,02,15,06,31,6.10
2010,02,15,06,32,6.10
2010,02,15,06,33,6.10
2010,02,15,06,34,6.10
2010,02,15,06,35,6.10
2010,02,15,06,36,6.10
2010,02,15,06,37,6.10
2010,02,15,06,38,6.20
2010,02,15,06,39,6.20
2010,02,15,06,40,6.20
2010,02,15,06,41,6.20
2010,02,15,06,42,6.20
2010,02,15,06,43,6.20
2010,02,15,06,44,6.20
2010,02,15,06,45,6.20
2010,02,15,06,46,6.20
2010,02,15,06,47,6.20
2010,02,15,06,48,6.20
2010,02,15,06,49,6.20
2010,02,15,06,50,6.20
2010,02,15,06,51,6.20
2010,02,15,06,52,6.20
2010,02,15,06,53,6.20
2010,02,15,06,54,6.20
2010,02,15,06,55,6.20
2010,02,15,06,56,6.20
2010,02,15,06,57,6.20
2010,02,15,06,58,6.20
2010,02,15,06,59,6.20
2010,02,15,07,00,6.20
2010,02,15,07,01,6.20
2010,02,15,07,02,6.20
2010,02,15,07,03,6.20
2010,02,15,07,04,6.20
2010,02,15,07,05,6.20
2010,02,15,07,06,6.20
2010,02,15,07,07,6.20
2010,02,15,07,08,6.20
2010,02,15,07,09,6.20
2010,02,15,07,10,6.20
2010,02,15,07,11,6.20
2010,02,15,07,12,6.20
2010,02,15,07,13,6.20
2010,02,15,07,14,6.20
2010,02,15,07,15,6.20
2010,02,15,07,16,6.20
2010,02,15,07,17,6.20
2010,02,15,07,18,6.20
2010,02,15,07,19,6.20
2010,02,15,07,20,6.20
2010,02,15,07,21,6.20
2010,02,15,07,22,6.20
2010,02,15,07,23,6.20
2010,02,15,07,24,6.20
2010,02,15,07,25,6.30
2010,02,15,07,26,6.30
2010,02,15,07,27,6.30
2010,02,15,07,28,6.30
2010,02,15,07,29,6.30
2010,02,15,07,30,6.30
2010,02,15,07,31,6.40
2010,02,15,07,32,6.40
2010,02,15,07,33,6.40
2010,02,15,07,34,6.40
2010,02,15,07,35,6.40
2010,02,15,07,36,6.50
2010,02,15,07,37,6.50
2010,02,15,07,38,6.50
2010,02,15,07,39,6.50
2010,02,15,07,40,6.50
2010,02,15,07,41,6.60
2010,02,15,07,42,6.60
2010,02,15,07,43,6.60
2010,02,15,07,44,6.60
2010,02,15,07,45,6.60
2010,02,15,07,46,6.60
2010,02,15,07,47,6.60
2010,02,15,07,48,6.60
2010,02,15,07,49,6.60
2010,02,15,07,50,6.60
2010,02,15,07,51,6.60
2010,02,15,07,52,6.60
2010,02,15,07,53,6.60
2010,02,15,07,54,6.60
2010,02,15,07,55,6.60
2010,02,15,07,56,6.60
2010,02,15,07,57,6.60
2010,02,15,07,58,6.60
2010,02,15,07,59,6.60
2010,02,15,08,00,6.70
2010,02,15,08,01,6.70
2010,02,15,08,02,6.70
2010,02,15,08,03,6.70
2010,02,15,08,04,6.70
2010,02,15,08,05,6.70
2010,02,15,08,06,6.70
2010,02,15,08,07,6.70
2010,02,15,08,08,6.70
2010,02,15,08,09,6.70
2010,02,15,08,10,6.70
2010,02,15,08,11,6.70
2010,02,15,08,12,6.70
2010,02,15,08,13,6.70
2010,02,15,08,14,6.70
2010,02,15,08,15,6.70
2010,02,15,08,16,6.70
2010,02,15,08,17,6.70
2010,02,15,08,18,6.70
2010,02,15,08,19,6.70
2010,02,15,08,20,6.70
2010,02,15,08,21,6.70
2010,02,15,08,22,6.70
2010,02,15,08,23,6.80
2010,02,15,08,24,6.80
2010,02,15,08,25,6.80
2010,02,15,08,26,6.80
2010,02,15,08,27,6.80
2010,02,15,08,28,6.80
2010,02,15,08,29,6.80
2010,02,15,08,30,6.80
2010,02,15,08,31,6.80
2010,02,15,08,32,6.80
2010,02,15,08,33,6.80
2010,02,15,08,34,6.80
2010,02,15,08,35,6.80
2010,02,15,08,36,6.80
2010,02,15,08,37,6.80
2010,02,15,08,38,6.80
2010,02,15,08,39,6.90
2010,02,15,08,40,6.90
2010,02,15,08,41,6.90
2010,02,15,08,42,6.90
2010,02,15,08,43,6.90
2010,02,15,08,44,6.90
2010,02,15,08,45,6.90
2010,02,15,08,46,6.90
2010,02,15,08,47,6.90
2010,02,15,08,48,6.90
2010,02,15,08,49,6.90
2010,02,15,08,50,6.90
2010,02,15,08,51,6.90
2010,02,15,08,52,6.90
2010,02,15,08,53,6.90
2010,02,15,08,54,6.90
2010,02,15,08,55,6.90
2010,02,15,08,56,6.90
2010,02,15,08,57,6.90
2010,02,15,08,58,6.90
2010,02,15,08,59,6.90
2010,02,15,09,00,6.90
2010,02,15,09,01,6.90
2010,02,15,09,02,6.90
2010,02,15,09,03,6.90
2010,02,15,09,04,7.00
2010,02,15,09,05,7.00
2010,02,15,09,06,7.00
2010,02,15,09,07,7.00
2010,02,15,09,08,7.00
2010,02,15,09,09,7.00
2010,02,15,09,10,7.00
2010,02,15,09,11,7.00
2010,02,15,09,12,7.00
2010,02,15,09,13,7.10
2010,02,15,09,14,7.10
2010,02,15,09,15,7.10
2010,02,15,09,16,7.10
2010,02,15,09,17,7.10
2010,02,15,09,18,7.10
2010,02,15,09,19,7.10
2010,02,15,09,20,7.10
2010,02,15,09,21,7.10
2010,02,15,09,22,7.10
2010,02,15,09,23,7.10
2010,02,15,09,24,7.10
2010,02,15,09,25,7.00
2010,02,15,09,26,7.00
2010,02,15,09,27,7.00
2010,02,15,09,28,7.00
2010,02,15,09,29,7.00
2010,02,15,09,30,6.90
2010,02,15,09,31,6.90
2010,02,15,09,32,6.90
2010,02,15,09,33,6.90
2010,02,15,09,34,6.90
2010,02,15,09,35,6.80
2010,02,15,09,36,6.80
2010,02,15,09,37,6.80
2010,02,15,09,38,6.80
2010,02,15,09,39,6.80
2010,02,15,09,40,6.80
2010,02,15,09,41,6.80
2010,02,15,09,42,6.80
2010,02,15,09,43,6.80
2010,02,15,09,44,6.80
2010,02,15,09,45,6.90
2010,02,15,09,46,6.90
2010,02,15,09,47,6.90
2010,02,15,09,48,6.90
2010,02,15,09,49,6.90
2010,02,15,09,50,6.90
2010,02,15,09,51,6.90
2010,02,15,09,52,6.90
2010,02,15,09,53,6.90
2010,02,15,09,54,6.90
2010,02,15,09,55,6.90
2010,02,15,09,56,6.90
2010,02,15,09,57,6.90
2010,02,15,09,58,7.00
2010,02,15,09,59,7.00
2010,02,15,10,00,7.00
2010,02,15,10,01,7.00
2010,02,15,10,02,7.00
2010,02,15,10,03,7.10
2010,02,15,10,04,7.10
2010,02,15,10,05,7.10
2010,02,15,10,06,7.10
2010,02,15,10,07,7.10
2010,02,15,10,08,7.10
2010,02,15,10,09,7.10
2010,02,15,10,10,7.10
2010,02,15,10,11,7.10
2010,02,15,10,12,7.10
2010,02,15,10,13,7.10
2010,02,15,10,14,7.10
2010,02,15,10,15,7.10
2010,02,15,10,16,7.10
2010,02,15,10,17,7.10
2010,02,15,10,18,7.10
2010,02,15,10,19,7.10
2010,02,15,10,20,7.10
2010,02,15,10,21,7.20
2010,02,15,10,22,7.20
2010,02,15,10,23,7.10
2010,02,15,10,24,7.20
2010,02,15,10,25,7.20
2010,02,15,10,26,7.20
2010,02,15,10,27,7.20
2010,02,15,10,28,7.20
2010,02,15,10,29,7.20
2010,02,15,10,30,7.20
2010,02,15,10,31,7.20
2010,02,15,10,32,7.20
2010,02,15,10,33,7.20
2010,02,15,10,34,7.20
2010,02,15,10,35,7.20
2010,02,15,10,36,7.20
2010,02,15,10,37,7.20
2010,02,15,10,38,7.20
2010,02,15,10,39,7.20
2010,02,15,10,40,7.20
2010,02,15,10,41,7.20
2010,02,15,10,42,7.20
2010,02,15,10,43,7.20
2010,02,15,10,44,7.20
2010,02,15,10,45,7.20
2010,02,15,10,46,7.20
2010,02,15,10,47,7.20
2010,02,15,10,48,7.20
2010,02,15,10,49,7.20
2010,02,15,10,50,7.30
2010,02,15,10,51,7.30
2010,02,15,10,52,7.30
2010,02,15,10,53,7.30
2010,02,15,10,54,7.40
2010,02,15,10,55,7.40
2010,02,15,10,56,7.50
2010,02,15,10,57,7.50
2010,02,15,10,58,7.60
2010,02,15,10,59,7.60
2010,02,15,11,00,7.60
2010,02,15,11,01,7.60
2010,02,15,11,02,7.70
2010,02,15,11,03,7.70
2010,02,15,11,04,7.70
2010,02,15,11,05,7.70
2010,02,15,11,06,7.70
2010,02,15,11,07,7.80
2010,02,15,11,08,7.80
2010,02,15,11,09,7.80
2010,02,15,11,10,7.80
2010,02,15,11,11,7.80
2010,02,15,11,12,7.80
2010,02,15,11,13,7.80
2010,02,15,11,14,7.80
2010,02,15,11,15,7.80
2010,02,15,11,16,7.80
2010,02,15,11,17,7.80
2010,02,15,11,18,7.80
2010,02,15,11,19,7.90
2010,02,15,11,20,7.90
2010,02,15,11,21,7.90
2010,02,15,11,22,7.90
2010,02,15,11,23,7.90
2010,02,15,11,24,7.90
2010,02,15,11,25,7.90
2010,02,15,11,26,7.90
2010,02,15,11,27,7.90
2010,02,15,11,28,7.90
2010,02,15,11,29,7.80
2010,02,15,11,30,7.80
2010,02,15,11,31,7.80
2010,02,15,11,32,7.90
2010,02,15,11,33,7.90
2010,02,15,11,34,7.90
2010,02,15,11,35,7.90
2010,02,15,11,36,7.90
2010,02,15,11,37,7.90
2010,02,15,11,38,8.00
2010,02,15,11,39,8.00
2010,02,15,11,40,8.00
2010,02,15,11,41,8.00
2010,02,15,11,42,8.00
2010,02,15,11,43,8.10
2010,02,15,11,44,8.10
2010,02,15,11,45,8.10
2010,02,15,11,46,8.10
2010,02,15,11,47,8.10
2010,02,15,11,48,8.10
2010,02,15,11,49,8.10
2010,02,15,11,50,8.10
2010,02,15,11,51,8.10
2010,02,15,11,52,8.10
2010,02,15,11,53,8.10
2010,02,15,11,54,8.10
2010,02,15,11,55,8.10
2010,02,15,11,56,8.10
2010,02,15,11,57,8.10
2010,02,15,11,58,8.10
2010,02,15,11,59,8.00
2010,02,15,12,00,8.00
2010,02,15,12,01,8.00
2010,02,15,12,02,8.00
2010,02,15,12,03,8.00
2010,02,15,12,04,8.00
2010,02,15,12,05,8.10
2010,02,15,12,06,8.10
2010,02,15,12,07,8.10
2010,02,15,12,08,8.10
2010,02,15,12,09,8.10
2010,02,15,12,10,8.10
2010,02,15,12,11,8.20
2010,02,15,12,12,8.20
2010,02,15,12,13,8.20
2010,02,15,12,14,8.20
2010,02,15,12,15,8.30
2010,02,15,12,16,8.30
2010,02,15,12,17,8.30
2010,02,15,12,18,8.40
2010,02,15,12,19,8.40
2010,02,15,12,20,8.50
2010,02,15,12,21,8.40
2010,02,15,12,22,8.40
2010,02,15,12,23,8.40
2010,02,15,12,24,8.40
2010,02,15,12,25,8.40
2010,02,15,12,26,8.40
2010,02,15,12,27,8.50
2010,02,15,12,28,8.50
2010,02,15,12,29,8.50
2010,02,15,12,30,8.60
2010,02,15,12,31,8.60
2010,02,15,12,32,8.50
2010,02,15,12,33,8.50
2010,02,15,12,34,8.50
2010,02,15,12,35,8.50
2010,02,15,12,36,8.50
2010,02,15,12,37,8.50
2010,02,15,12,38,8.50
2010,02,15,12,39,8.50
2010,02,15,12,40,8.60
2010,02,15,12,41,8.60
2010,02,15,12,42,8.60
2010,02,15,12,43,8.60
2010,02,15,12,44,8.70
2010,02,15,12,45,8.70
2010,02,15,12,46,8.70
2010,02,15,12,47,8.80
2010,02,15,12,48,8.80
2010,02,15,12,49,8.80
2010,02,15,12,50,8.90
2010,02,15,12,51,8.90
2010,02,15,12,52,9.00
2010,02,15,12,53,9.10
2010,02,15,12,54,9.10
2010,02,15,12,55,9.10
2010,02,15,12,56,9.20
2010,02,15,12,57,9.20
2010,02,15,12,58,9.30
2010,02,15,12,59,9.30
2010,02,15,13,00,9.30
2010,02,15,13,01,9.30
2010,02,15,13,02,9.30
2010,02,15,13,03,9.30
2010,02,15,13,04,9.30
2010,02,15,13,05,9.30
2010,02,15,13,06,9.30
2010,02,15,13,07,9.40
2010,02,15,13,08,9.40
2010,02,15,13,09,9.40
2010,02,15,13,10,9.50
2010,02,15,13,11,9.60
2010,02,15,13,12,9.50
2010,02,15,13,13,9.50
2010,02,15,13,14,9.50
2010,02,15,13,15,9.50
2010,02,15,13,16,9.50
2010,02,15,13,17,9.50
2010,02,15,13,18,9.40
2010,02,15,13,19,9.40
2010,02,15,13,20,9.50
2010,02,15,13,21,9.50
2010,02,15,13,22,9.50
2010,02,15,13,23,9.50
2010,02,15,13,24,9.50
2010,02,15,13,25,9.50
2010,02,15,13,26,9.50
2010,02,15,13,27,9.50
2010,02,15,13,28,9.50
2010,02,15,13,29,9.60
2010,02,15,13,30,9.60
2010,02,15,13,31,9.60
2010,02,15,13,32,9.60
2010,02,15,13,33,9.60
2010,02,15,13,34,9.60
2010,02,15,13,35,9.60
2010,02,15,13,36,9.60
2010,02,15,13,37,9.60
2010,02,15,13,38,9.60
2010,02,15,13,39,9.60
2010,02,15,13,40,9.50
2010,02,15,13,41,9.50
2010,02,15,13,42,9.60
2010,02,15,13,43,9.50
2010,02,15,13,44,9.50
2010,02,15,13,45,9.40
2010,02,15,13,46,9.40
2010,02,15,13,47,9.40
2010,02,15,13,48,9.40
2010,02,15,13,49,9.40
2010,02,15,13,50,9.40
2010,02,15,13,51,9.40
2010,02,15,13,52,9.40
2010,02,15,13,53,9.40
2010,02,15,13,54,9.40
2010,02,15,13,55,9.40
2010,02,15,13,56,9.40
2010,02,15,13,57,9.40
2010,02,15,13,58,9.50
2010,02,15,13,59,9.50
2010,02,15,14,00,9.50
2010,02,15,14,01,9.40
2010,02,15,14,02,9.40
2010,02,15,14,03,9.40
2010,02,15,14,04,9.40
2010,02,15,14,05,9.30
2010,02,15,14,06,9.30
2010,02,15,14,07,9.30
2010,02,15,14,08,9.20
2010,02,15,14,09,9.20
2010,02,15,14,10,9.20
2010,02,15,14,11,9.20
2010,02,15,14,12,9.20
2010,02,15,14,13,9.20
2010,02,15,14,14,9.20
2010,02,15,14,15,9.20
2010,02,15,14,16,9.20
2010,02,15,14,17,9.10
2010,02,15,14,18,9.10
2010,02,15,14,19,9.10
2010,02,15,14,20,9.10
2010,02,15,14,21,9.10
2010,02,15,14,22,9.10
2010,02,15,14,23,9.10
2010,02,15,14,24,9.10
2010,02,15,14,25,9.10
2010,02,15,14,26,9.10
2010,02,15,14,27,9.10
2010,02,15,14,28,9.10
2010,02,15,14,29,9.10
2010,02,15,14,30,9.10
2010,02,15,14,31,9.10
2010,02,15,14,32,9.20
2010,02,15,14,33,9.10
2010,02,15,14,34,9.10
2010,02,15,14,35,9.10
2010,02,15,14,36,9.10
2010,02,15,14,37,9.10
2010,02,15,14,38,9.00
2010,02,15,14,39,9.00
2010,02,15,14,40,8.90
2010,02,15,14,41,8.90
2010,02,15,14,42,8.90
2010,02,15,14,43,8.90
2010,02,15,14,44,8.90
2010,02,15,14,45,8.90
2010,02,15,14,46,8.90
2010,02,15,14,47,8.90
2010,02,15,14,48,8.90
2010,02,15,14,49,8.90
2010,02,15,14,50,8.90
2010,02,15,14,51,8.80
2010,02,15,14,52,8.80
2010,02,15,14,53,8.80
2010,02,15,14,54,8.80
2010,02,15,14,55,8.80
2010,02,15,14,56,8.80
2010,02,15,14,57,8.80
2010,02,15,14,58,8.80
2010,02,15,14,59,8.80
2010,02,15,15,00,8.80
2010,02,15,15,01,8.80
2010,02,15,15,02,8.80
2010,02,15,15,03,8.80
2010,02,15,15,04,8.80
2010,02,15,15,05,8.80
2010,02,15,15,06,8.80
2010,02,15,15,07,8.80
2010,02,15,15,08,8.80
2010,02,15,15,09,8.80
2010,02,15,15,10,8.80
2010,02,15,15,11,8.80
2010,02,15,15,12,8.80
2010,02,15,15,13,8.80
2010,02,15,15,14,8.80
2010,02,15,15,15,8.80
2010,02,15,15,16,8.70
2010,02,15,15,17,8.80
2010,02,15,15,18,8.80
2010,02,15,15,19,8.70
2010,02,15,15,20,8.70
2010,02,15,15,21,8.70
2010,02,15,15,22,8.70
2010,02,15,15,23,8.70
2010,02,15,15,24,8.70
2010,02,15,15,25,8.80
2010,02,15,15,26,8.80
2010,02,15,15,27,8.80
2010,02,15,15,28,8.80
2010,02,15,15,29,8.80
2010,02,15,15,30,8.80
2010,02,15,15,31,8.80
2010,02,15,15,32,8.80
2010,02,15,15,33,8.80
2010,02,15,15,34,8.80
2010,02,15,15,35,8.80
2010,02,15,15,36,8.80
2010,02,15,15,37,8.80
2010,02,15,15,38,8.80
2010,02,15,15,39,8.80
2010,02,15,15,40,8.80
2010,02,15,15,41,8.80
2010,02,15,15,42,8.80
2010,02,15,15,43,8.80
2010,02,15,15,44,8.80
2010,02,15,15,45,8.80
2010,02,15,15,46,8.90
2010,02,15,15,47,8.90
2010,02,15,15,48,8.90
2010,02,15,15,49,8.90
2010,02,15,15,50,8.90
2010,02,15,15,51,8.90
2010,02,15,15,52,8.90
2010,02,15,15,53,8.90
2010,02,15,15,54,8.90
2010,02,15,15,55,9.00
2010,02,15,15,56,9.00
2010,02,15,15,57,9.00
2010,02,15,15,58,9.00
2010,02,15,15,59,9.00
2010,02,15,16,00,9.00
2010,02,15,16,01,9.00
2010,02,15,16,02,9.00
2010,02,15,16,03,9.00
2010,02,15,16,04,9.00
2010,02,15,16,05,9.00
2010,02,15,16,06,9.00
2010,02,15,16,07,9.00
2010,02,15,16,08,9.00
2010,02,15,16,09,9.00
2010,02,15,16,10,9.00
2010,02,15,16,11,9.00
2010,02,15,16,12,9.00
2010,02,15,16,13,9.00
2010,02,15,16,14,9.00
2010,02,15,16,15,9.00
2010,02,15,16,16,9.00
2010,02,15,16,17,9.00
2010,02,15,16,18,9.00
2010,02,15,16,19,9.00
2010,02,15,16,20,9.00
2010,02,15,16,21,9.00
2010,02,15,16,22,9.00
2010,02,15,16,23,9.00
2010,02,15,16,24,9.00
2010,02,15,16,25,9.00
2010,02,15,16,26,9.00
2010,02,15,16,27,9.00
2010,02,15,16,28,8.90
2010,02,15,16,29,9.00
2010,02,15,16,30,9.00
2010,02,15,16,31,9.00
2010,02,15,16,32,8.90
2010,02,15,16,33,8.90
2010,02,15,16,34,9.00
2010,02,15,16,35,8.90
2010,02,15,16,36,8.90
2010,02,15,16,37,8.90
2010,02,15,16,38,9.00
2010,02,15,16,39,9.00
2010,02,15,16,40,9.00
2010,02,15,16,41,9.00
2010,02,15,16,42,9.00
2010,02,15,16,43,9.00
2010,02,15,16,44,9.00
2010,02,15,16,45,9.00
2010,02,15,16,46,9.00
2010,02,15,16,47,9.00
2010,02,15,16,48,9.00
2010,02,15,16,49,9.00
2010,02,15,16,50,9.00
2010,02,15,16,51,9.00
2010,02,15,16,52,9.00
2010,02,15,16,53,9.00
2010,02,15,16,54,9.00
2010,02,15,16,55,9.00
2010,02,15,16,56,9.00
2010,02,15,16,57,9.00
2010,02,15,16,58,9.00
2010,02,15,16,59,9.00
2010,02,15,17,00,9.00
2010,02,15,17,01,9.00
2010,02,15,17,02,9.00
2010,02,15,17,03,9.00
2010,02,15,17,04,9.00
2010,02,15,17,05,9.00
2010,02,15,17,06,9.00
2010,02,15,17,07,9.00
2010,02,15,17,08,9.00
2010,02,15,17,09,9.00
2010,02,15,17,10,9.00
2010,02,15,17,11,9.00
2010,02,15,17,12,9.00
2010,02,15,17,13,9.00
2010,02,15,17,14,9.00
2010,02,15,17,15,9.00
2010,02,15,17,16,9.00
2010,02,15,17,17,9.00
2010,02,15,17,18,9.00
2010,02,15,17,19,9.00
2010,02,15,17,20,9.00
2010,02,15,17,21,9.00
2010,02,15,17,22,8.90
2010,02,15,17,23,8.90
2010,02,15,17,24,8.90
2010,02,15,17,25,8.90
2010,02,15,17,26,8.90
2010,02,15,17,27,8.90
2010,02,15,17,28,8.90
2010,02,15,17,29,8.90
2010,02,15,17,30,8.90
2010,02,15,17,31,8.90
2010,02,15,17,32,8.90
2010,02,15,17,33,8.90
2010,02,15,17,34,8.90
2010,02,15,17,35,8.90
2010,02,15,17,36,8.90
2010,02,15,17,37,8.90
2010,02,15,17,38,8.90
2010,02,15,17,39,8.90
2010,02,15,17,40,8.90
2010,02,15,17,41,8.90
2010,02,15,17,42,8.80
2010,02,15,17,43,8.80
2010,02,15,17,44,8.80
2010,02,15,17,45,8.80
2010,02,15,17,46,8.80
2010,02,15,17,47,8.80
2010,02,15,17,48,8.80
2010,02,15,17,49,8.80
2010,02,15,17,50,8.80
2010,02,15,17,51,8.80
2010,02,15,17,52,8.80
2010,02,15,17,53,8.80
2010,02,15,17,54,8.80
2010,02,15,17,55,8.80
2010,02,15,17,56,8.80
2010,02,15,17,57,8.80
2010,02,15,17,58,8.80
2010,02,15,17,59,8.80
2010,02,15,18,00,8.80
2010,02,15,18,01,8.80
2010,02,15,18,02,8.80
2010,02,15,18,03,8.70
2010,02,15,18,04,8.70
2010,02,15,18,05,8.70
2010,02,15,18,06,8.70